Regional Weather Roundup
Issued by NWS

Home | Current Version | Previous Version | Graphics & Text | Print | Product List | Glossary On
Versions: 1 2 3 4 5 6 7 8 9 10 11 12 13 14 15 16 17 18 19 20 21 22 23 24 25 26 27 28 29 30 31 32 33 34 35 36 37 38 39 40 41 42 43 44 45 46 47 48 49 50
701
ASUS45 KBOU 241007
RWRCO

WEATHER ROUNDUP FOR COLORADO
NATIONAL WEATHER SERVICE DENVER/BOULDER CO
400 AM MDT SUN JUL 24 2016

NOTE: "FAIR" INDICATES FEW OR NO CLOUDS BELOW 12000 FEET WITH NO
SIGNIFICANT WEATHER AND/OR OBSTRUCTIONS TO VISIBILITY.

COZ001>005-013-030-031-241100-
...NORTHWEST COLORADO...

CITY           SKY/WX    TMP DP  RH WIND       PRES   REMARKS
CRAIG          FAIR      59  39  47 CALM      30.20F
HAYDEN         FAIR      63  37  39 E10       30.23F
MEEKER         FAIR      59  45  59 CALM      30.23R
MOUNT WERNER   NOT AVBL
STEAMBOAT SPGS FAIR      61  42  48 NW8       30.26S
WALDEN         FAIR      54  41  62 E13       30.37S
$$

COZ006>008-011-241100-
...WEST CENTRAL VALLEYS...

CITY           SKY/WX    TMP DP  RH WIND       PRES   REMARKS
GRAND JUNCTION FAIR      79  39  23 N9        30.10F
MONTROSE       FAIR      65  43  44 E10       30.20R
EAGLE          FAIR      63  43  48 CALM      30.29F
RIFLE          FAIR      65  45  48 NW5       30.17R
DELTA          FAIR      70  48  45 N6        30.15R
NUCLA          MOCLDY    68  41  37 SW5       30.26R
$$

COZ017>023-064>068-241100-
...SOUTHWEST COLORADO...

CITY           SKY/WX    TMP DP  RH WIND       PRES   REMARKS
DURANGO        FAIR      59  45  59 NE6       30.24R
CORTEZ         FAIR      62  44  51 NE8       30.19F
PAGOSA SPRINGS FAIR      63  39  41 CALM      30.34S
TELLURIDE      MOCLDY    60  37  43 CALM      30.47R
WOLF CREEK PAS FAIR      48  37  66 SW15      30.68F
$$

COZ009-010-012-014-032>034-037-058>063-241100-
...CENTRAL COLORADO...

CITY           SKY/WX    TMP DP  RH WIND       PRES   REMARKS
ASPEN          FAIR      57  48  72 SE8       30.36F
BUENA VISTA    FAIR      55  42  61 NW15      30.40R
COPPER MTN     CLOUDY    45  37  76 S22       30.69S
BERTHOUD PASS  CLOUDY    43  30  61 N21G28    30.70F
COTTONWOOD PAS FAIR      57  37  47 CALM      30.54R
GUNNISON       FAIR      52  39  62 SE5       30.37F
KREMMLING      FAIR      55  46  71 SE3       30.37F
LEADVILLE      MOCLDY    49  40  71 NE9       30.52F
MONARCH PASS   MOCLDY    46  41  81 NE8       30.77R
SALIDA         FAIR      59  48  67 W6        30.43S
SUNLIGHT       FAIR      54  36  50 E5        30.58F
WILKERSON PASS FAIR      48  39  71 W3        30.64S
$$

COZ069>075-241100-
...SAN LUIS VALLEY/SANGRE DE CRISTO MOUNTAINS...

CITY           SKY/WX    TMP DP  RH WIND       PRES   REMARKS
ALAMOSA        CLOUDY    61  49  64 E8        30.31S
LA VETA PASS   FAIR      55  41  58 SE3       30.52S THUNDER
SAGUACHE       FAIR      57  41  54 NW8       30.36S
$$

COZ035-036-038>040-241100-
...NORTHERN COLORADO FRONT RANGE...

CITY           SKY/WX    TMP DP  RH WIND       PRES   REMARKS
DENVER INTL AP FAIR      69  50  50 S16       30.14S
DMNS CITY PARK   N/A     64  53  68 SW2       30.15S
AURORA         PTCLDY    68  50  52 S13       30.17F
FRONT RANGE AP NOT AVBL
ERIE MUNI ARPT FAIR      60  53  78 SW5       30.14S
BOULDER MUN AP FAIR      64  50  59 CALM      30.15R
CENTENNIAL     FAIR      68  48  48 S10       30.19S
BROOMFIELD     FAIR      64  50  59 W5        30.18S
LONGMONT       FAIR      65  54  66 W3        30.15S
$$

COZ041-046-047-076>085-087-088-241100-
...PIKES PEAK/PALMER DIVIDE AND SOUTHERN FOOTHILLS...

CITY           SKY/WX    TMP DP  RH WIND       PRES   REMARKS
COLO. SPRINGS  MOCLDY    64  52  64 E5        30.24F
A. F. ACADEMY  FAIR      63  50  61 CALM      30.25F
SCHRIEVER AFB  NOT AVBL
ELLICOTT       FAIR     N/A N/A N/A N3        30.22F
FALCON         FAIR      60  50  69 W6        30.29
FORT CARSON    FAIR      67  49  53 S2        30.19F
LIMON          FAIR      58  55  90 NW5       30.16F
MONUMENT HILL  FAIR      57  50  77 S8        30.30S
TRINIDAD       NOT AVBL
$$

COZ042>045-048>051-090-091-241100-
...NORTHEAST COLORADO...

CITY           SKY/WX    TMP DP  RH WIND       PRES   REMARKS
GREELEY ARPT   FAIR      63  54  72 CALM      30.12F
AKRON          FAIR      67  51  56 SW10      30.11R
BURLINGTON     FAIR      72  54  53 E7        30.07F
WRAY           FAIR      68  55  64 NE6       30.05R
STERLING       FAIR      64  59  82 W5        30.09R
HOLYOKE        FAIR      72  61  68 CALM      30.05S
FORT MORGAN    FAIR      65  51  61 NW8       30.11S
$$

COZ086-089-092>099-241100-
...SOUTHEAST COLORADO...

CITY           SKY/WX    TMP DP  RH WIND       PRES   REMARKS
PUEBLO         FAIR      69  51  52 N5        30.11F
LA JUNTA       FAIR      69  61  75 W8        30.07F
LAMAR          FAIR      66  62  87 S8        30.02R
SPRINGFIELD      N/A     63  55  75 NW7       30.09R
$$




USA.gov is the U.S. government's official web portal to all federal, state and local government web resources and services.